| time (UTC) | temp F | wind direction | speed knots | gust knots | rain 1hr in | rain 24hr in | rain mn in | humidity % | barometer mb |
| 20260505074008 | 56 | 310 | 0.0 | 0.9 | 0.00 | 0.00 | 0.00 | 75 | 1011.9 |
| 20260505073509 | 56 | 310 | 0.0 | 0.9 | 0.00 | 0.00 | 0.00 | 75 | 1011.7 |
| 20260505073030 | 56 | 310 | 0.0 | 0.9 | 0.00 | 0.00 | 0.00 | 75 | 1011.7 |
| 20260505072503 | 57 | 310 | 0.0 | 2.6 | 0.00 | 0.00 | 0.00 | 74 | 1011.6 |
| 20260505072002 | 57 | 310 | 0.0 | 2.6 | 0.00 | 0.00 | 0.00 | 74 | 1011.5 |
| 20260505071518 | 57 | 296 | 0.0 | 0.9 | 0.00 | 0.00 | 0.00 | 73 | 1011.5 |
| 20260505071008 | 57 | 295 | 0.0 | 1.7 | 0.00 | 0.00 | 0.00 | 73 | 1011.5 |
| 20260505070509 | 57 | 295 | 0.0 | 1.7 | 0.00 | 0.00 | 0.00 | 72 | 1011.4 |
| 20260505070020 | 58 | 295 | 0.0 | 1.7 | 0.00 | 0.00 | 0.00 | 72 | 1011.4 |
| 20260505065504 | 58 | 269 | 0.0 | 2.6 | 0.00 | 0.00 | 0.00 | 71 | 1011.4 |
| 20260505065012 | 58 | 269 | 0.0 | 2.6 | 0.00 | 0.00 | 0.00 | 71 | 1011.3 |
| 20260505064524 | 58 | 269 | 0.0 | 2.6 | 0.00 | 0.00 | 0.00 | 70 | 1011.2 |
| 20260505064006 | 58 | 269 | 0.9 | 2.6 | 0.00 | 0.00 | 0.00 | 70 | 1011.2 |
| 20260505063506 | 59 | 352 | 0.0 | 1.7 | 0.00 | 0.00 | 0.00 | 70 | 1011.2 |
| 20260505063041 | 59 | 352 | 0.0 | 0.9 | 0.00 | 0.00 | 0.00 | 69 | 1011.1 |
| 20260505062511 | 59 | 352 | 0.0 | 1.7 | 0.00 | 0.00 | 0.00 | 69 | 1011.0 |
| 20260505062017 | 59 | 352 | 0.0 | 1.7 | 0.00 | 0.00 | 0.00 | 69 | 1011.0 |
| 20260505061533 | 60 | 352 | 0.0 | 2.6 | 0.00 | 0.00 | 0.00 | 68 | 1011.0 |
| 20260505061004 | 60 | 352 | 0.0 | 3.5 | 0.00 | 0.00 | 0.00 | 68 | 1011.0 |
| 20260505060502 | 60 | 9 | 0.9 | 3.5 | 0.00 | 0.00 | 0.00 | 68 | 1010.9 |
| 20260505060017 | 60 | 254 | 0.0 | 1.7 | 0.00 | 0.00 | 0.00 | 68 | 1010.8 |
| 20260505055506 | 60 | 22 | 0.0 | 0.9 | 0.00 | 0.00 | 0.00 | 68 | 1010.8 |
| 20260505055006 | 61 | 22 | 0.0 | 1.7 | 0.00 | 0.00 | 0.00 | 68 | 1010.7 |
| 20260505054527 | 61 | 22 | 0.0 | 1.7 | 0.00 | 0.00 | 0.00 | 68 | 1010.6 |
| 20260505054012 | 61 | 22 | 0.9 | 1.7 | 0.00 | 0.00 | 0.00 | 68 | 1010.6 |
| 20260505053507 | 61 | 22 | 0.0 | 1.7 | 0.00 | 0.00 | 0.00 | 68 | 1010.7 |
| 20260505053026 | 61 | 22 | 0.0 | 1.7 | 0.00 | 0.00 | 0.00 | 68 | 1010.7 |
| 20260505052507 | 61 | 22 | 0.0 | 2.6 | 0.00 | 0.00 | 0.00 | 68 | 1010.7 |
| 20260505052009 | 62 | 22 | 0.0 | 2.6 | 0.00 | 0.00 | 0.00 | 68 | 1010.4 |
| 20260505051536 | 62 | 22 | 0.0 | 4.3 | 0.00 | 0.00 | 0.00 | 68 | 1010.4 |
| 20260505051010 | 62 | 41 | 1.7 | 4.3 | 0.00 | 0.00 | 0.00 | 68 | 1010.3 |
| 20260505050511 | 62 | 14 | 0.9 | 3.5 | 0.00 | 0.00 | 0.00 | 67 | 1010.3 |
| 20260505041542 | 65 | 26 | 0.9 | 4.3 | 0.00 | 0.00 | 0.00 | 63 | 1010.1 |
| 20260505041009 | 65 | 350 | 0.9 | 3.5 | 0.00 | 0.00 | 0.00 | 63 | 1010.0 |
| 20260505040509 | 66 | 22 | 0.9 | 3.5 | 0.00 | 0.00 | 0.00 | 63 | 1010.0 |
| 20260505040029 | 66 | 26 | 0.9 | 3.5 | 0.00 | 0.00 | 0.00 | 62 | 1009.9 |
| 20260505035510 | 67 | 337 | 0.9 | 3.5 | 0.00 | 0.00 | 0.00 | 62 | 1009.9 |
| 20260505035011 | 67 | 352 | 0.9 | 4.3 | 0.00 | 0.00 | 0.00 | 61 | 1009.8 |
| 20260505034528 | 67 | 5 | 0.9 | 4.3 | 0.00 | 0.00 | 0.00 | 60 | 1009.7 |
| 20260505034003 | 68 | 318 | 0.9 | 7.0 | 0.00 | 0.00 | 0.00 | 60 | 1009.7 |
| 20260505033508 | 68 | 11 | 3.5 | 7.0 | 0.00 | 0.00 | 0.00 | 59 | 1009.6 |
| 20260505033020 | 69 | 5 | 0.0 | 3.5 | 0.00 | 0.00 | 0.00 | 58 | 1009.6 |
| 20260505032512 | 69 | 5 | 1.7 | 3.5 | 0.00 | 0.00 | 0.00 | 57 | 1009.6 |
| 20260505032008 | 69 | 22 | 0.0 | 4.3 | 0.00 | 0.00 | 0.00 | 57 | 1009.6 |
| 20260505031529 | 70 | 338 | 0.9 | 4.3 | 0.00 | 0.00 | 0.00 | 56 | 1009.5 |
| 20260505031007 | 70 | 336 | 1.7 | 4.3 | 0.00 | 0.00 | 0.00 | 55 | 1009.4 |
| 20260505030507 | 70 | 333 | 1.7 | 4.3 | 0.00 | 0.00 | 0.00 | 55 | 1009.4 |
| 20260505030026 | 71 | 322 | 0.9 | 7.0 | 0.00 | 0.00 | 0.00 | 54 | 1009.4 |
| 20260505025514 | 71 | 317 | 0.9 | 7.0 | 0.00 | 0.00 | 0.00 | 53 | 1009.5 |
| 20260505025010 | 71 | 340 | 1.7 | 7.0 | 0.00 | 0.00 | 0.00 | 52 | 1009.4 |
| 20260505024528 | 72 | 290 | 1.7 | 7.0 | 0.00 | 0.00 | 0.00 | 51 | 1009.3 |
| 20260505024007 | 72 | 5 | 1.7 | 7.0 | 0.00 | 0.00 | 0.00 | 49 | 1009.2 |
| 20260505023511 | 72 | 327 | 2.6 | 5.2 | 0.00 | 0.00 | 0.00 | 48 | 1009.3 |
| 20260505023026 | 72 | 269 | 0.0 | 5.2 | 0.00 | 0.00 | 0.00 | 49 | 1009.3 |
| 20260505022506 | 72 | 244 | 1.7 | 7.0 | 0.00 | 0.00 | 0.00 | 51 | 1009.2 |
| 20260505022007 | 72 | 236 | 2.6 | 7.0 | 0.00 | 0.00 | 0.00 | 52 | 1009.2 |
| 20260505021520 | 73 | 237 | 1.7 | 5.2 | 0.00 | 0.00 | 0.00 | 51 | 1009.2 |
| 20260505021006 | 73 | 236 | 2.6 | 5.2 | 0.00 | 0.00 | 0.00 | 52 | 1009.1 |
| 20260505020507 | 73 | 216 | 1.7 | 5.2 | 0.00 | 0.00 | 0.00 | 52 | 1009.1 |
| 20260505020024 | 73 | 173 | 1.7 | 6.1 | 0.00 | 0.00 | 0.00 | 51 | 1009.0 |
| 20260505015508 | 73 | 183 | 2.6 | 6.1 | 0.00 | 0.00 | 0.00 | 52 | 1009.0 |
| 20260505015008 | 73 | 162 | 2.6 | 5.2 | 0.00 | 0.00 | 0.00 | 51 | 1009.0 |
| 20260505014528 | 73 | 188 | 1.7 | 7.0 | 0.00 | 0.00 | 0.00 | 51 | 1009.0 |
| 20260505014010 | 73 | 225 | 3.5 | 7.8 | 0.00 | 0.00 | 0.00 | 50 | 1008.9 |
| 20260505013507 | 74 | 195 | 2.6 | 7.8 | 0.00 | 0.00 | 0.00 | 50 | 1009.0 |
| 20260505013029 | 75 | 183 | 2.6 | 7.8 | 0.00 | 0.00 | 0.00 | 49 | 1009.0 |
| 20260505012508 | 75 | 180 | 1.7 | 7.8 | 0.00 | 0.00 | 0.00 | 48 | 1009.0 |
| 20260505012007 | 76 | 226 | 4.3 | 7.8 | 0.00 | 0.00 | 0.00 | 46 | 1009.0 |
| 20260505011520 | 76 | 195 | 3.5 | 7.8 | 0.00 | 0.00 | 0.00 | 43 | 1008.9 |
| 20260505011006 | 77 | 182 | 2.6 | 9.6 | 0.00 | 0.00 | 0.00 | 40 | 1008.9 |
| 20260505010507 | 77 | 242 | 2.6 | 9.6 | 0.00 | 0.00 | 0.00 | 40 | 1009.0 |
| 20260505010024 | 77 | 209 | 3.5 | 9.6 | 0.00 | 0.00 | 0.00 | 40 | 1009.1 |
| 20260505005503 | 77 | 233 | 4.3 | 9.6 | 0.00 | 0.00 | 0.00 | 41 | 1009.0 |
| 20260505005003 | 77 | 238 | 4.3 | 9.6 | 0.00 | 0.00 | 0.00 | 44 | 1009.0 |
| 20260505004506 | 77 | 232 | 3.5 | 8.7 | 0.00 | 0.00 | 0.00 | 45 | 1009.0 |
| 20260505004004 | 77 | 205 | 5.2 | 8.7 | 0.00 | 0.00 | 0.00 | 44 | 1009.1 |
| 20260505003503 | 77 | 227 | 4.3 | 8.7 | 0.00 | 0.00 | 0.00 | 44 | 1009.0 |
| 20260505003011 | 77 | 223 | 2.6 | 7.0 | 0.00 | 0.00 | 0.00 | 45 | 1009.0 |
| 20260505002502 | 77 | 236 | 4.3 | 8.7 | 0.00 | 0.00 | 0.00 | 45 | 1009.0 |
| 20260505002006 | 77 | 217 | 5.2 | 8.7 | 0.00 | 0.00 | 0.00 | 45 | 1009.0 |
| 20260505001516 | 77 | 217 | 3.5 | 7.8 | 0.00 | 0.00 | 0.00 | 45 | 1009.1 |
| 20260505001006 | 78 | 240 | 2.6 | 7.8 | 0.00 | 0.00 | 0.00 | 46 | 1009.1 |
| 20260505000506 | 77 | 254 | 3.5 | 9.6 | 0.00 | 0.00 | 0.00 | 44 | 1009.1 |
| 20260505000020 | 77 | 209 | 3.5 | 9.6 | 0.00 | 0.00 | 0.00 | 46 | 1009.2 |
| 20260504235507 | 78 | 242 | 2.6 | 7.8 | 0.00 | 0.00 | 0.00 | 45 | 1009.2 |
| 20260504235009 | 77 | 244 | 3.5 | 7.8 | 0.00 | 0.00 | 0.00 | 44 | 1009.3 |
| 20260504234503 | 77 | 196 | 2.6 | 7.8 | 0.00 | 0.00 | 0.00 | 44 | 1009.4 |
| 20260504234002 | 77 | 198 | 3.5 | 7.8 | 0.00 | 0.00 | 0.00 | 42 | 1009.3 |
| 20260504233503 | 78 | 185 | 3.5 | 9.6 | 0.00 | 0.00 | 0.00 | 41 | 1009.4 |
| 20260504233010 | 77 | 248 | 4.3 | 9.6 | 0.00 | 0.00 | 0.00 | 41 | 1009.4 |
| 20260504232503 | 77 | 239 | 3.5 | 9.6 | 0.00 | 0.00 | 0.00 | 40 | 1009.4 |
| 20260504232002 | 77 | 223 | 2.6 | 6.1 | 0.00 | 0.00 | 0.00 | 42 | 1009.4 |
| 20260504231514 | 78 | 181 | 2.6 | 5.2 | 0.00 | 0.00 | 0.00 | 40 | 1009.4 |
| 20260504231007 | 78 | 217 | 2.6 | 7.8 | 0.00 | 0.00 | 0.00 | 39 | 1009.5 |
| 20260504230508 | 78 | 237 | 2.6 | 8.7 | 0.00 | 0.00 | 0.00 | 40 | 1009.5 |
| 20260504230020 | 77 | 249 | 3.5 | 8.7 | 0.00 | 0.00 | 0.00 | 38 | 1009.5 |
| 20260504225506 | 77 | 211 | 3.5 | 7.0 | 0.00 | 0.00 | 0.00 | 38 | 1009.5 |
| 20260504225008 | 78 | 231 | 3.5 | 7.0 | 0.00 | 0.00 | 0.00 | 39 | 1009.6 |
| 20260504224527 | 78 | 250 | 2.6 | 7.0 | 0.00 | 0.00 | 0.00 | 39 | 1009.6 |
| 20260504224008 | 77 | 244 | 2.6 | 8.7 | 0.00 | 0.00 | 0.00 | 42 | 1009.6 |
| 20260504223511 | 77 | 245 | 2.6 | 8.7 | 0.00 | 0.00 | 0.00 | 39 | 1009.6 |
| 20260504223007 | 78 | 258 | 4.3 | 10.4 | 0.00 | 0.00 | 0.00 | 40 | 1009.6 |
| 20260504222503 | 77 | 248 | 3.5 | 10.4 | 0.00 | 0.00 | 0.00 | 41 | 1009.6 |
| 20260504222003 | 76 | 257 | 3.5 | 8.7 | 0.00 | 0.00 | 0.00 | 42 | 1009.6 |
| 20260504221511 | 77 | 155 | 2.6 | 10.4 | 0.00 | 0.00 | 0.00 | 41 | 1009.7 |
| 20260504221003 | 77 | 239 | 6.1 | 10.4 | 0.00 | 0.00 | 0.00 | 41 | 1009.8 |
| 20260504220503 | 77 | 195 | 2.6 | 7.0 | 0.00 | 0.00 | 0.00 | 41 | 1009.9 |
| 20260504220017 | 78 | 242 | 1.7 | 6.1 | 0.00 | 0.00 | 0.00 | 41 | 1010.0 |
| 20260504215510 | 78 | 203 | 3.5 | 9.6 | 0.00 | 0.00 | 0.00 | 40 | 1010.0 |
| 20260504215008 | 77 | 180 | 4.3 | 9.6 | 0.00 | 0.00 | 0.00 | 39 | 1010.0 |
| 20260504214534 | 77 | 263 | 4.3 | 7.8 | 0.00 | 0.00 | 0.00 | 39 | 1010.0 |
| 20260504214009 | 77 | 202 | 3.5 | 10.4 | 0.00 | 0.00 | 0.00 | 37 | 1010.1 |
| 20260504213507 | 76 | 184 | 3.5 | 10.4 | 0.00 | 0.00 | 0.00 | 40 | 1010.0 |
| 20260504213028 | 76 | 246 | 5.2 | 9.6 | 0.00 | 0.00 | 0.00 | 40 | 1010.0 |
| 20260504212506 | 76 | 283 | 6.1 | 9.6 | 0.00 | 0.00 | 0.00 | 41 | 1010.0 |
| 20260504212001 | 76 | 185 | 3.5 | 8.7 | 0.00 | 0.00 | 0.00 | 42 | 1010.0 |
| 20260504211507 | 77 | 205 | 3.5 | 8.7 | 0.00 | 0.00 | 0.00 | 42 | 1010.0 |
| 20260504211003 | 76 | 198 | 3.5 | 8.7 | 0.00 | 0.00 | 0.00 | 43 | 1010.1 |
| 20260504210503 | 76 | 267 | 5.2 | 8.7 | 0.00 | 0.00 | 0.00 | 41 | 1010.0 |
| 20260504210019 | 76 | 180 | 4.3 | 8.7 | 0.00 | 0.00 | 0.00 | 45 | 1010.1 |
| 20260504205504 | 75 | 228 | 4.3 | 7.8 | 0.00 | 0.00 | 0.00 | 44 | 1010.2 |
| 20260504205007 | 75 | 227 | 3.5 | 7.8 | 0.00 | 0.00 | 0.00 | 45 | 1010.2 |
| 20260504204520 | 75 | 158 | 2.6 | 9.6 | 0.00 | 0.00 | 0.00 | 47 | 1010.2 |
| 20260504204006 | 74 | 221 | 3.5 | 10.4 | 0.00 | 0.00 | 0.00 | 46 | 1010.2 |
| 20260504203509 | 75 | 259 | 5.2 | 10.4 | 0.00 | 0.00 | 0.00 | 46 | 1010.3 |
| 20260504203022 | 75 | 214 | 3.5 | 8.7 | 0.00 | 0.00 | 0.00 | 47 | 1010.3 |
| 20260504202508 | 74 | 229 | 3.5 | 7.8 | 0.00 | 0.00 | 0.00 | 46 | 1010.3 |
| 20260504202010 | 74 | 221 | 3.5 | 7.8 | 0.00 | 0.00 | 0.00 | 49 | 1010.3 |
| 20260504201524 | 74 | 202 | 3.5 | 7.8 | 0.00 | 0.00 | 0.00 | 48 | 1010.3 |
| 20260504201008 | 73 | 231 | 4.3 | 7.8 | 0.00 | 0.00 | 0.00 | 49 | 1010.4 |
| 20260504200503 | 73 | 232 | 3.5 | 8.7 | 0.00 | 0.00 | 0.00 | 49 | 1010.4 |
| 20260504200017 | 73 | 162 | 3.5 | 8.7 | 0.00 | 0.00 | 0.00 | 49 | 1010.5 |
| 20260504195503 | 73 | 167 | 2.6 | 7.8 | 0.00 | 0.00 | 0.00 | 49 | 1010.4 |
| 20260504195007 | 72 | 242 | 3.5 | 7.0 | 0.00 | 0.00 | 0.00 | 49 | 1010.4 |
| 20260504194517 | 73 | 202 | 3.5 | 7.0 | 0.00 | 0.00 | 0.00 | 50 | 1010.4 |
| 20260504194003 | 74 | 215 | 2.6 | 7.8 | 0.00 | 0.00 | 0.00 | 48 | 1010.4 |
| 20260504193506 | 74 | 199 | 2.6 | 7.8 | 0.00 | 0.00 | 0.00 | 50 | 1010.4 |
| 20260504193020 | 73 | 244 | 3.5 | 7.8 | 0.00 | 0.00 | 0.00 | 50 | 1010.4 |
| 20260504192512 | 73 | 232 | 2.6 | 7.0 | 0.00 | 0.00 | 0.00 | 51 | 1010.4 |
| 20260504192005 | 73 | 219 | 3.5 | 7.0 | 0.00 | 0.00 | 0.00 | 51 | 1010.4 |
| 20260504191504 | 72 | 217 | 2.6 | 8.7 | 0.00 | 0.00 | 0.00 | 51 | 1010.4 |
| 20260504191003 | 72 | 238 | 4.3 | 8.7 | 0.00 | 0.00 | 0.00 | 51 | 1010.4 |
| 20260504190506 | 72 | 257 | 4.3 | 7.0 | 0.00 | 0.00 | 0.00 | 51 | 1010.4 |
| 20260504190011 | 73 | 225 | 3.5 | 7.0 | 0.00 | 0.00 | 0.00 | 52 | 1010.5 |
| 20260504185503 | 72 | 149 | 1.7 | 7.0 | 0.00 | 0.00 | 0.00 | 53 | 1010.6 |
| 20260504185003 | 72 | 208 | 2.6 | 7.0 | 0.00 | 0.00 | 0.00 | 52 | 1010.6 |
| 20260504184508 | 72 | 184 | 2.6 | 7.0 | 0.00 | 0.00 | 0.00 | 49 | 1010.6 |
| 20260504184002 | 72 | 148 | 2.6 | 7.8 | 0.00 | 0.00 | 0.00 | 48 | 1010.7 |
| 20260504183503 | 72 | 206 | 4.3 | 7.8 | 0.00 | 0.00 | 0.00 | 49 | 1010.6 |
| 20260504183013 | 72 | 212 | 2.6 | 7.0 | 0.00 | 0.00 | 0.00 | 51 | 1010.7 |
| 20260504182503 | 71 | 237 | 1.7 | 7.0 | 0.00 | 0.00 | 0.00 | 49 | 1010.7 |
| 20260504182002 | 71 | 255 | 2.6 | 7.0 | 0.00 | 0.00 | 0.00 | 51 | 1010.7 |
| 20260504181510 | 70 | 148 | 3.5 | 8.7 | 0.00 | 0.00 | 0.00 | 50 | 1010.7 |
| 20260504181004 | 70 | 255 | 4.3 | 8.7 | 0.00 | 0.00 | 0.00 | 50 | 1010.7 |
| 20260504180503 | 70 | 265 | 4.3 | 8.7 | 0.00 | 0.00 | 0.00 | 51 | 1010.6 |
| 20260504180006 | 70 | 207 | 2.6 | 7.8 | 0.00 | 0.00 | 0.00 | 57 | 1010.6 |
| 20260504175504 | 69 | 200 | 3.5 | 7.8 | 0.00 | 0.00 | 0.00 | 56 | 1010.6 |
| 20260504175003 | 69 | 212 | 3.5 | 6.1 | 0.00 | 0.00 | 0.00 | 58 | 1010.5 |
| 20260504174510 | 69 | 254 | 2.6 | 6.1 | 0.00 | 0.00 | 0.00 | 53 | 1010.5 |
| 20260504174002 | 69 | 244 | 2.6 | 7.0 | 0.00 | 0.00 | 0.00 | 52 | 1010.6 |
| 20260504173503 | 69 | 217 | 2.6 | 7.0 | 0.00 | 0.00 | 0.00 | 53 | 1010.5 |
| 20260504173010 | 68 | 200 | 2.6 | 7.0 | 0.00 | 0.00 | 0.00 | 58 | 1010.5 |
| 20260504172505 | 68 | 229 | 2.6 | 7.0 | 0.00 | 0.00 | 0.00 | 59 | 1010.5 |
| 20260504172003 | 68 | 201 | 3.5 | 7.0 | 0.00 | 0.00 | 0.00 | 61 | 1010.5 |
| 20260504171512 | 67 | 202 | 1.7 | 7.0 | 0.00 | 0.00 | 0.00 | 64 | 1010.5 |
| 20260504171003 | 67 | 242 | 3.5 | 7.0 | 0.00 | 0.00 | 0.00 | 65 | 1010.5 |
| 20260504170503 | 66 | 169 | 1.7 | 6.1 | 0.00 | 0.00 | 0.00 | 66 | 1010.6 |
| 20260504151003 | 57 | 66 | 0.0 | 1.7 | 0.00 | 0.00 | 0.00 | 82 | 1010.2 |
| 20260504150508 | 56 | 66 | 0.9 | 1.7 | 0.00 | 0.00 | 0.00 | 83 | 1010.2 |
| 20260504141008 | 53 | 66 | 0.0 | 1.7 | 0.00 | 0.00 | 0.00 | 88 | 1009.7 |
| 20260504140504 | 53 | 66 | 0.9 | 1.7 | 0.00 | 0.00 | 0.00 | 89 | 1009.7 |
| 20260504130503 | 51 | 66 | 0.0 | 1.7 | 0.00 | 0.00 | 0.00 | 88 | 1009.3 |
| 20260504110506 | 53 | 66 | 0.0 | 1.7 | 0.00 | 0.00 | 0.00 | 84 | 1009.3 |
| 20260504100506 | 53 | 66 | 0.0 | 1.7 | 0.00 | 0.00 | 0.00 | 83 | 1009.4 |
| 20260504082004 | 56 | 66 | 0.0 | 2.6 | 0.00 | 0.00 | 0.00 | 75 | 1009.1 |
| 20260504081526 | 56 | 66 | 0.9 | 1.7 | 0.00 | 0.00 | 0.00 | 75 | 1009.2 |
| 20260504081007 | 56 | 66 | 0.9 | 1.7 | 0.00 | 0.00 | 0.00 | 74 | 1009.2 |
| 20260504080512 | 57 | 66 | 0.9 | 1.7 | 0.00 | 0.00 | 0.00 | 74 | 1009.2 |